Flag for Thailand Weather past 2 weeks in Khon Kaen, Thailand

Now
57 °F

Fog.


Feels Like: 56 °F
Forecast: 64 / 86 °F
Wind: 6 mph from North

Location: Khon Kaen Airport

Current Time: Dec 23, 2014 at 7:38:38 AM

Latest Report: Dec 23, 2014 at 7:00 AM


Visibility: 3 mi

Pressure: 30.04 "Hg

Humidity: 77%

Dew point: 50 °F

Location of Khon KaenLocation

Historic Weather in Khon Kaen — Graph

°F

Khon Kaen temperature yesterday

Maximum temperature yesterday: 79 °F (at 2:00 PM)
Minimum temperature yesterday: 59 °F (at 6:00 AM)
Average temperature yesterday: 68 °F

Past Weeks' High & Low Weather Summary

 TemperatureHumidityPressure
High88 °F (Dec 8, 2:00 PM)88% (Dec 11, 2:00 AM)30.18 "Hg (Dec 11, 2:00 AM)
Low57 °F (Dec 23, 5:00 AM)29% (Dec 21, 2:00 PM)29.86 "Hg (Dec 11, 4:00 PM)
Average73 °F55%30.02 "Hg
* Reported Dec 8 6:00 AM — Dec 23 6:00 AM, Khon Kaen, Weather by CustomWeather, © 2014

Note: Actual official high and low records may vary slightly from our data, if they occured in-between our weather recording intervals... More about our weather records

Advertising

Khon Kaen weather history for previous 24 hours

 ConditionsComfort  
Time TempWeatherWind HumidityBarometerVisibility
6:00 AM
Dec 23
57 °FClear.3 mph77%30.04 "Hg4 mi
5:00 AM57 °FClear.3 mph77%30.01 "Hg4 mi
4:00 AM61 °FClear.7 mph68%30.01 "Hg6 mi
2:00 AM61 °FClear.7 mph68%30.01 "Hg6 mi
1:00 AM63 °FClear.5 mph68%30.04 "Hg6 mi
12:00 AM63 °FClear.7 mph64%30.04 "Hg6 mi
11:00 PM
Dec 22
64 °FClear.7 mph60%30.04 "Hg6 mi
10:00 PM66 °FClear.7 mph56%30.04 "Hg6 mi
9:00 PM68 °FClear.7 mph53%30.04 "Hg6 mi
8:00 PM70 °FClear.9 mph50%30.01 "Hg6 mi
7:00 PM70 °FClear.8 mph50%29.98 "Hg6 mi
6:00 PM73 °FClear.7 mph41%29.98 "Hg10 mi
5:00 PM77 °FSunny.12 mph34%29.95 "Hg10 mi
4:00 PM77 °FSunny.12 mph34%29.95 "Hg10 mi
3:00 PM79 °FPassing clouds.12 mph32%29.95 "HgN/A
2:00 PM79 °FPassing clouds.12 mph32%29.98 "HgN/A
1:00 PM77 °FPassing clouds.9 mph34%30.01 "HgN/A
12:00 PM75 °FClear.12 mph34%30.07 "Hg6 mi
11:00 AM73 °FClear.10 mph38%30.09 "Hg6 mi
10:00 AM70 °FClear.10 mph43%30.09 "Hg6 mi
9:00 AM66 °FClear.10 mph49%30.09 "Hg5 mi
8:00 AM61 °FPassing clouds.7 mph63%30.09 "Hg4 mi
7:00 AM59 °FPassing clouds.6 mph68%30.07 "Hg4 mi
Weather by CustomWeather, © 2014

See weather overviewHow to use our weather pages